This is the latest recevied weather packets stored in our database for station/object VK4TW-13. If no packets are shown the sender has not sent any weather packets the latest 10 day(s).
| Time | Temp. | Humidity | Pressure | Rain* | Wind** | Luminosity | Snow |
|---|---|---|---|---|---|---|---|
| 1787878458 | 27.22° C | 98% | 1024.7 hPa | 0 mm | - | - | - |
| 1787877858 | 27.22° C | 100% | 1024.8 hPa | 0 mm | - | - | - |
| 1787877255 | 26.67° C | 100% | 1024.8 hPa | 0 mm | - | - | - |
| 1787876655 | 26.11° C | 100% | 1025 hPa | 0 mm | - | - | - |
| 1787876056 | 25.56° C | 100% | 1025.1 hPa | 0 mm | - | - | - |
| 1787875874 | 25.56° C | 100% | 1025.2 hPa | 0 mm | - | - | - |
| 1787875424 | 25.56° C | 100% | 1025.3 hPa | 0 mm | - | - | - |
| 1787874825 | 25.56° C | 100% | 1025.2 hPa | 0 mm | - | - | - |
| 1787874222 | 24.44° C | 100% | 1025.4 hPa | 0 mm | - | - | - |
| 1787873622 | 23.89° C | 100% | 1025.4 hPa | 0 mm | - | - | - |
| 1787873022 | 23.89° C | 100% | 1025.4 hPa | 0 mm | - | - | - |
| 1787872419 | 23.33° C | 100% | 1025.4 hPa | 0 mm | - | - | - |
| 1787871819 | 23.33° C | 100% | 1025.5 hPa | 0 mm | - | - | - |
| 1787871640 | 23.33° C | 100% | 1025.4 hPa | 0 mm | - | - | - |
| 1787871203 | 22.78° C | 100% | 1025.4 hPa | 0 mm | - | - | - |
| 1787870990 | 22.78° C | 100% | 1025.5 hPa | 0 mm | - | - | - |
| 1787870568 | 22.78° C | 100% | 1025.3 hPa | 0 mm | - | - | - |
| 1787869964 | 22.22° C | 100% | 1025.3 hPa | 0 mm | - | - | - |
| 1787869364 | 21.67° C | 100% | 1025.3 hPa | 0 mm | - | - | - |
| 1787868765 | 20.56° C | 100% | 1025.4 hPa | 0 mm | - | - | - |
| 1787868164 | 19.44° C | 100% | 1025.4 hPa | 0 mm | - | - | - |
| 1787867561 | 18.33° C | 100% | 1025.4 hPa | 0 mm | - | - | - |
| 1787866963 | 17.78° C | 100% | 1025.4 hPa | 0 mm | - | - | - |
| 1787866359 | 17.22° C | 100% | 1025.2 hPa | 0 mm | - | - | - |
| 1787865758 | 17.22° C | 100% | 1025.1 hPa | 0 mm | - | - | - |
* Rain since midnight (hover to see other rain measurements)
** Current wind speed in m/s (hover to see current wind gust speed)